Private Wetterstation Wechselburg
Wetterdaten: Freitag, 21.06.2019
Datum Zeit Temp. +2m Bodentemp. Temp.+5cm Temp. Wind Windchill X Diff Temp. Feuchte +2m Feuchte +5cm Luftdruck Regen Wind Richtung Richtung Sonnenschein Taupunkt Windchill Windben
21.06.2019 00:00 19,3 C 20,8 C 18,8 C 19,0 C 18,3 C 0,0 C 77 % 80 % 1014,4 hPa 0,0 l/m 0,3 km/h (0 Bft) O-NO 67 0 min 15,2 C 18,3 C 0,0 km/h (0 Bft)
21.06.2019 00:05 19,3 C 20,8 C 18,8 C 18,9 C 18,2 C 0,0 C 77 % 80 % 1014,8 hPa 0,0 l/m 0,3 km/h (0 Bft) N 360 0 min 15,2 C 18,2 C 0,0 km/h (0 Bft)
21.06.2019 00:11 19,1 C 20,7 C 18,7 C 18,8 C 18,1 C 0,0 C 78 % 80 % 1014,8 hPa 0,0 l/m 0,0 km/h (0 Bft) N 0 0 min 15,2 C 18,1 C 0,0 km/h (0 Bft)
21.06.2019 00:24 18,8 C 20,7 C 18,4 C 18,3 C 17,4 C 0,0 C 78 % 81 % 1014,9 hPa 0,0 l/m 0,0 km/h (0 Bft) W-NW 292 0 min 14,9 C 17,4 C 0,0 km/h (0 Bft)
21.06.2019 00:25 18,8 C 20,7 C 18,4 C 18,3 C 17,4 C 0,0 C 78 % 81 % 1014,9 hPa 0,0 l/m 0,0 km/h (0 Bft) W-NW 292 0 min 14,9 C 17,4 C 0,0 km/h (0 Bft)
21.06.2019 00:35 18,6 C 20,7 C 18,3 C 18,1 C 17,2 C 0,0 C 79 % 82 % 1014,9 hPa 0,0 l/m 0,0 km/h (0 Bft) W-SW 247 0 min 14,9 C 17,2 C 0,0 km/h (0 Bft)
21.06.2019 00:40 18,7 C 20,7 C 18,3 C 18,2 C 17,1 C 0,0 C 80 % 82 % 1014,9 hPa 0,0 l/m 0,0 km/h (0 Bft) W-SW 247 0 min 15,2 C 17,1 C 0,0 km/h (0 Bft)
21.06.2019 00:45 18,5 C 20,7 C 18,1 C 18,0 C 16,9 C 0,0 C 80 % 82 % 1014,9 hPa 0,0 l/m 0,0 km/h (0 Bft) SW 225 0 min 15,0 C 16,9 C 0,0 km/h (0 Bft)
21.06.2019 00:50 18,4 C 20,8 C 17,9 C 17,8 C 16,7 C 0,0 C 80 % 83 % 1014,9 hPa 0,0 l/m 0,0 km/h (0 Bft) O-NO 67 0 min 14,9 C 16,7 C 0,0 km/h (0 Bft)
21.06.2019 00:55 18,3 C 20,8 C 17,8 C 17,7 C 16,6 C 0,0 C 80 % 83 % 1014,9 hPa 0,0 l/m 0,0 km/h (0 Bft) O-NO 67 0 min 14,8 C 16,6 C 0,0 km/h (0 Bft)
21.06.2019 01:00 18,3 C 20,8 C 17,7 C 17,7 C 16,5 C 0,0 C 80 % 83 % 1014,9 hPa 0,0 l/m 0,0 km/h (0 Bft) O-NO 67 0 min 14,8 C 16,5 C 0,0 km/h (0 Bft)
21.06.2019 01:05 18,0 C 20,8 C 17,6 C 17,5 C 16,4 C 0,0 C 80 % 83 % 1014,7 hPa 0,0 l/m 0,0 km/h (0 Bft) O-NO 67 0 min 14,5 C 16,4 C 0,0 km/h (0 Bft)
21.06.2019 01:10 17,9 C 20,8 C 17,5 C 17,4 C 16,3 C 0,0 C 81 % 84 % 1014,7 hPa 0,0 l/m 0,0 km/h (0 Bft) O-NO 67 0 min 14,6 C 16,3 C 0,0 km/h (0 Bft)
21.06.2019 01:15 17,8 C 20,8 C 17,4 C 17,3 C 16,3 C 0,0 C 81 % 84 % 1014,7 hPa 0,0 l/m 0,0 km/h (0 Bft) NO 45 0 min 14,5 C 16,3 C 0,0 km/h (0 Bft)
21.06.2019 01:20 17,7 C 20,7 C 17,3 C 17,2 C 16,2 C 0,0 C 81 % 84 % 1014,7 hPa 0,0 l/m 0,0 km/h (0 Bft) O-SO 112 0 min 14,4 C 16,2 C 0,0 km/h (0 Bft)
21.06.2019 01:25 17,6 C 20,7 C 17,3 C 17,1 C 16,0 C 0,0 C 81 % 84 % 1014,7 hPa 0,0 l/m 0,0 km/h (0 Bft) S 180 0 min 14,3 C 16,0 C 0,0 km/h (0 Bft)
21.06.2019 01:30 17,4 C 20,7 C 17,1 C 16,9 C 15,8 C 0,0 C 81 % 84 % 1014,7 hPa 0,0 l/m 0,0 km/h (0 Bft) SO 135 0 min 14,1 C 15,8 C 0,0 km/h (0 Bft)
21.06.2019 01:35 17,3 C 20,7 C 16,9 C 16,7 C 15,6 C 0,0 C 82 % 84 % 1014,7 hPa 0,0 l/m 0,0 km/h (0 Bft) S-SO 157 0 min 14,2 C 15,6 C 0,0 km/h (0 Bft)
21.06.2019 01:40 17,3 C 20,7 C 16,9 C 16,7 C 15,6 C 0,0 C 82 % 84 % 1014,7 hPa 0,0 l/m 0,0 km/h (0 Bft) S 180 0 min 14,2 C 15,6 C 0,0 km/h (0 Bft)
21.06.2019 01:45 17,1 C 20,7 C 16,8 C 16,6 C 15,6 C 0,0 C 82 % 85 % 1015,4 hPa 0,0 l/m 0,0 km/h (0 Bft) SW 225 0 min 14,0 C 15,6 C 0,0 km/h (0 Bft)
21.06.2019 01:50 17,1 C 20,7 C 16,8 C 16,6 C 15,6 C 0,0 C 82 % 85 % 1015,4 hPa 0,0 l/m 0,0 km/h (0 Bft) NO 45 0 min 14,0 C 15,6 C 0,0 km/h (0 Bft)
21.06.2019 01:55 17,1 C 20,6 C 16,7 C 16,6 C 15,6 C 0,0 C 82 % 85 % 1015,4 hPa 0,0 l/m 0,0 km/h (0 Bft) O-NO 67 0 min 14,0 C 15,6 C 0,0 km/h (0 Bft)
21.06.2019 02:00 16,9 C 20,6 C 16,6 C 16,5 C 15,7 C 0,0 C 82 % 85 % 1015,4 hPa 0,0 l/m 0,0 km/h (0 Bft) NO 45 0 min 13,8 C 15,7 C 0,0 km/h (0 Bft)
21.06.2019 02:05 16,9 C 20,6 C 16,5 C 16,5 C 15,6 C 0,0 C 83 % 85 % 1015,1 hPa 0,0 l/m 0,0 km/h (0 Bft) W 270 0 min 14,0 C 15,6 C 0,0 km/h (0 Bft)
21.06.2019 02:11 16,8 C 20,5 C 16,5 C 16,3 C 15,4 C 0,0 C 83 % 85 % 1015,1 hPa 0,0 l/m 0,0 km/h (0 Bft) N 0 0 min 13,9 C 15,4 C 0,0 km/h (0 Bft)
21.06.2019 02:26 16,7 C 20,5 C 16,4 C 16,2 C 15,1 C 0,0 C 83 % 85 % 1015,2 hPa 0,0 l/m 0,0 km/h (0 Bft) O-NO 67 0 min 13,8 C 15,1 C 0,0 km/h (0 Bft)
21.06.2019 02:35 16,4 C 20,5 C 16,3 C 16,0 C 15,2 C 0,0 C 83 % 85 % 1015,2 hPa 0,0 l/m 0,0 km/h (0 Bft) O-NO 67 0 min 13,5 C 15,2 C 0,0 km/h (0 Bft)
21.06.2019 02:40 16,4 C 20,5 C 16,3 C 16,0 C 15,2 C 0,0 C 83 % 85 % 1015,2 hPa 0,0 l/m 0,0 km/h (0 Bft) O-NO 67 0 min 13,5 C 15,2 C 0,0 km/h (0 Bft)
21.06.2019 02:45 16,3 C 20,5 C 16,2 C 15,9 C 15,1 C 0,0 C 84 % 85 % 1015,3 hPa 0,0 l/m 0,0 km/h (0 Bft) NW 315 0 min 13,6 C 15,1 C 0,0 km/h (0 Bft)
21.06.2019 02:50 16,3 C 20,5 C 16,2 C 15,9 C 15,0 C 0,0 C 84 % 85 % 1015,3 hPa 0,0 l/m 0,0 km/h (0 Bft) O-NO 67 0 min 13,6 C 15,0 C 0,0 km/h (0 Bft)
21.06.2019 02:55 16,3 C 20,6 C 16,2 C 15,9 C 15,1 C 0,0 C 84 % 86 % 1015,3 hPa 0,0 l/m 0,0 km/h (0 Bft) O 90 0 min 13,6 C 15,1 C 0,0 km/h (0 Bft)
21.06.2019 03:00 16,2 C 20,6 C 16,2 C 15,8 C 15,1 C 0,0 C 84 % 86 % 1015,3 hPa 0,0 l/m 0,0 km/h (0 Bft) NO 45 0 min 13,5 C 15,1 C 0,0 km/h (0 Bft)
21.06.2019 03:05 16,2 C 20,6 C 16,0 C 15,9 C 15,2 C 0,0 C 85 % 86 % 1015,4 hPa 0,0 l/m 0,3 km/h (0 Bft) NW 315 0 min 13,7 C 15,2 C 0,0 km/h (0 Bft)
21.06.2019 03:10 16,3 C 20,5 C 16,1 C 16,0 C 15,3 C 0,0 C 85 % 86 % 1015,4 hPa 0,0 l/m 0,6 km/h (0 Bft) O-NO 67 0 min 13,8 C 15,3 C 0,0 km/h (0 Bft)
21.06.2019 03:15 16,2 C 20,5 C 16,0 C 15,9 C 15,3 C 0,0 C 85 % 86 % 1015,4 hPa 0,0 l/m 0,8 km/h (0 Bft) N-NO 22 0 min 13,7 C 15,3 C 3,7 km/h (1 Bft)
21.06.2019 03:20 16,3 C 20,5 C 16,1 C 16,0 C 15,3 C 0,0 C 85 % 86 % 1015,4 hPa 0,0 l/m 0,6 km/h (0 Bft) N-NO 22 0 min 13,8 C 15,3 C 0,0 km/h (0 Bft)
21.06.2019 03:25 16,2 C 20,5 C 16,1 C 15,9 C 15,3 C 0,0 C 85 % 86 % 1015,8 hPa 0,0 l/m 0,3 km/h (0 Bft) O-SO 112 0 min 13,7 C 15,3 C 0,0 km/h (0 Bft)
21.06.2019 03:30 16,3 C 20,4 C 16,1 C 15,9 C 15,2 C 0,0 C 85 % 86 % 1015,8 hPa 0,0 l/m 0,0 km/h (0 Bft) NO 45 0 min 13,8 C 15,2 C 0,0 km/h (0 Bft)
21.06.2019 03:35 16,1 C 20,5 C 16,0 C 15,8 C 15,1 C 0,0 C 85 % 86 % 1015,8 hPa 0,0 l/m 0,0 km/h (0 Bft) O-NO 67 0 min 13,6 C 15,1 C 0,0 km/h (0 Bft)
21.06.2019 03:40 16,1 C 20,4 C 15,9 C 15,8 C 15,1 C 0,0 C 85 % 86 % 1015,8 hPa 0,0 l/m 0,0 km/h (0 Bft) N-NO 22 0 min 13,6 C 15,1 C 0,0 km/h (0 Bft)
21.06.2019 03:45 16,1 C 20,4 C 15,9 C 15,7 C 15,0 C 0,0 C 85 % 86 % 1015,8 hPa 0,0 l/m 0,0 km/h (0 Bft) S-SO 157 0 min 13,6 C 15,0 C 0,0 km/h (0 Bft)
21.06.2019 03:50 16,1 C 20,4 C 15,8 C 15,7 C 14,9 C 0,0 C 85 % 86 % 1015,8 hPa 0,0 l/m 0,0 km/h (0 Bft) SO 135 0 min 13,6 C 14,9 C 0,0 km/h (0 Bft)
21.06.2019 03:55 15,9 C 20,4 C 15,8 C 15,5 C 14,8 C 0,0 C 85 % 86 % 1015,8 hPa 0,0 l/m 0,0 km/h (0 Bft) NO 45 0 min 13,4 C 14,8 C 0,0 km/h (0 Bft)
21.06.2019 04:00 15,9 C 20,4 C 15,7 C 15,5 C 14,7 C 0,0 C 85 % 86 % 1015,8 hPa 0,0 l/m 0,0 km/h (0 Bft) O-NO 67 0 min 13,4 C 14,7 C 0,0 km/h (0 Bft)
21.06.2019 04:05 15,8 C 20,4 C 15,7 C 15,4 C 14,6 C 0,0 C 85 % 86 % 1015,7 hPa 0,0 l/m 0,0 km/h (0 Bft) O 90 0 min 13,3 C 14,6 C 0,0 km/h (0 Bft)
21.06.2019 04:11 15,9 C 20,4 C 15,6 C 15,5 C 14,6 C 0,0 C 85 % 86 % 1015,7 hPa 0,0 l/m 0,0 km/h (0 Bft) N 0 0 min 13,4 C 14,6 C 0,0 km/h (0 Bft)
21.06.2019 04:26 15,6 C 20,4 C 15,3 C 15,2 C 14,4 C 0,0 C 85 % 87 % 1015,8 hPa 0,0 l/m 0,2 km/h (0 Bft) O-NO 67 0 min 13,1 C 14,4 C 0,0 km/h (0 Bft)
21.06.2019 04:35 15,5 C 20,3 C 15,3 C 15,1 C 14,2 C 0,0 C 85 % 87 % 1015,8 hPa 0,0 l/m 0,0 km/h (0 Bft) W-SW 247 0 min 13,0 C 14,2 C 0,0 km/h (0 Bft)
21.06.2019 04:40 15,5 C 20,3 C 15,3 C 15,0 C 14,0 C 0,0 C 85 % 87 % 1015,8 hPa 0,0 l/m 0,0 km/h (0 Bft) S 180 0 min 13,0 C 14,0 C 0,0 km/h (0 Bft)
21.06.2019 04:45 15,3 C 20,2 C 15,2 C 14,8 C 13,8 C 0,0 C 85 % 87 % 1015,9 hPa 0,0 l/m 0,0 km/h (0 Bft) W-SW 247 0 min 12,8 C 13,8 C 0,0 km/h (0 Bft)
21.06.2019 04:50 15,3 C 20,3 C 15,2 C 14,8 C 13,7 C 0,0 C 85 % 87 % 1015,9 hPa 0,0 l/m 0,0 km/h (0 Bft) W-SW 247 0 min 12,8 C 13,7 C 0,0 km/h (0 Bft)
21.06.2019 04:55 15,2 C 20,4 C 15,0 C 14,7 C 13,7 C 0,0 C 85 % 87 % 1015,9 hPa 0,0 l/m 0,0 km/h (0 Bft) NO 45 0 min 12,7 C 13,7 C 0,0 km/h (0 Bft)
21.06.2019 05:00 15,1 C 20,3 C 15,0 C 14,6 C 13,7 C 0,0 C 85 % 87 % 1015,9 hPa 0,0 l/m 0,0 km/h (0 Bft) N-NO 22 0 min 12,6 C 13,7 C 0,0 km/h (0 Bft)
21.06.2019 05:05 15,0 C 20,2 C 14,9 C 14,6 C 13,7 C 0,0 C 85 % 88 % 1016,3 hPa 0,0 l/m 0,0 km/h (0 Bft) W 270 0 min 12,5 C 13,7 C 0,0 km/h (0 Bft)
21.06.2019 05:10 15,1 C 20,3 C 14,9 C 14,6 C 13,7 C 0,0 C 86 % 88 % 1016,3 hPa 0,0 l/m 0,0 km/h (0 Bft) O 90 0 min 12,8 C 13,7 C 0,0 km/h (0 Bft)
21.06.2019 05:15 15,0 C 20,2 C 14,9 C 14,6 C 13,7 C 0,0 C 86 % 88 % 1016,3 hPa 0,0 l/m 0,0 km/h (0 Bft) NO 45 0 min 12,7 C 13,7 C 0,0 km/h (0 Bft)
21.06.2019 05:20 14,9 C 20,2 C 14,8 C 14,5 C 13,7 C 0,0 C 86 % 88 % 1016,3 hPa 0,0 l/m 0,0 km/h (0 Bft) N-NO 22 0 min 12,6 C 13,7 C 0,0 km/h (0 Bft)
21.06.2019 05:25 14,9 C 20,2 C 14,7 C 14,5 C 13,7 C 0,0 C 86 % 88 % 1016,6 hPa 0,0 l/m 0,0 km/h (0 Bft) W-SW 247 0 min 12,6 C 13,7 C 0,0 km/h (0 Bft)
21.06.2019 05:30 14,8 C 20,2 C 14,7 C 14,4 C 13,7 C 0,0 C 86 % 88 % 1016,6 hPa 0,0 l/m 0,0 km/h (0 Bft) S 180 0 min 12,5 C 13,7 C 0,0 km/h (0 Bft)
21.06.2019 05:35 14,8 C 20,2 C 14,8 C 14,5 C 13,9 C 0,0 C 86 % 88 % 1016,6 hPa 0,0 l/m 0,0 km/h (0 Bft) S-SO 157 0 min 12,5 C 13,9 C 0,0 km/h (0 Bft)
21.06.2019 05:40 14,8 C 20,1 C 14,8 C 14,5 C 14,0 C 0,0 C 86 % 88 % 1016,6 hPa 0,0 l/m 0,0 km/h (0 Bft) W-NW 292 0 min 12,5 C 14,0 C 0,0 km/h (0 Bft)
21.06.2019 05:45 14,9 C 20,1 C 14,8 C 14,6 C 14,0 C 0,0 C 87 % 88 % 1016,6 hPa 0,0 l/m 0,0 km/h (0 Bft) O-NO 67 0 min 12,8 C 14,0 C 0,0 km/h (0 Bft)
21.06.2019 05:50 14,8 C 20,1 C 14,8 C 14,6 C 14,1 C 0,0 C 87 % 88 % 1016,6 hPa 0,0 l/m 0,0 km/h (0 Bft) W-SW 247 0 min 12,7 C 14,1 C 0,0 km/h (0 Bft)
21.06.2019 05:55 14,8 C 20,1 C 15,0 C 14,6 C 14,2 C 0,0 C 87 % 89 % 1016,6 hPa 0,0 l/m 0,0 km/h (0 Bft) S-SO 157 0 min 12,7 C 14,2 C 0,0 km/h (0 Bft)
21.06.2019 06:00 14,8 C 20,0 C 15,2 C 14,6 C 14,2 C 0,0 C 87 % 89 % 1016,6 hPa 0,0 l/m 0,0 km/h (0 Bft) W-SW 247 0 min 12,7 C 14,2 C 0,0 km/h (0 Bft)
21.06.2019 06:05 14,9 C 20,0 C 15,3 C 14,7 C 14,3 C 0,0 C 87 % 89 % 1016,4 hPa 0,0 l/m 0,0 km/h (0 Bft) W 270 0 min 12,8 C 14,3 C 2,1 km/h (1 Bft)
21.06.2019 06:11 15,0 C 20,0 C 15,4 C 14,8 C 14,5 C 0,0 C 87 % 88 % 1016,4 hPa 0,0 l/m 0,2 km/h (0 Bft) N 0 0 min 12,9 C 14,5 C 0,0 km/h (0 Bft)
21.06.2019 06:26 15,3 C 19,9 C 15,9 C 15,3 C 15,2 C 0,0 C 87 % 88 % 1016,9 hPa 0,0 l/m 0,2 km/h (0 Bft) W-SW 247 0 min 13,1 C 15,2 C 0,0 km/h (0 Bft)
21.06.2019 06:35 15,4 C 19,9 C 16,0 C 15,8 C 15,8 C 0,4 C 87 % 88 % 1016,9 hPa 0,0 l/m 0,0 km/h (0 Bft) S 180 0 min 13,2 C 15,8 C 0,0 km/h (0 Bft)
21.06.2019 06:40 15,4 C 19,9 C 16,2 C 16,0 C 16,0 C 0,6 C 87 % 88 % 1016,9 hPa 0,0 l/m 0,0 km/h (0 Bft) W-SW 247 0 min 13,2 C 16,0 C 0,0 km/h (0 Bft)
21.06.2019 06:45 15,6 C 19,9 C 16,4 C 16,3 C 16,3 C 0,7 C 87 % 87 % 1016,9 hPa 0,0 l/m 0,0 km/h (0 Bft) S-SW 202 0 min 13,4 C 16,3 C 0,0 km/h (0 Bft)
21.06.2019 06:50 15,7 C 19,9 C 16,6 C 16,5 C 16,5 C 0,8 C 87 % 87 % 1016,9 hPa 0,0 l/m 0,0 km/h (0 Bft) SW 225 0 min 13,5 C 16,5 C 0,0 km/h (0 Bft)
21.06.2019 06:55 15,9 C 19,9 C 16,9 C 16,9 C 16,9 C 1,0 C 87 % 87 % 1016,9 hPa 0,0 l/m 0,0 km/h (0 Bft) SO 135 0 min 13,7 C 16,9 C 0,0 km/h (0 Bft)
21.06.2019 07:00 16,0 C 19,8 C 17,2 C 17,5 C 17,5 C 1,5 C 87 % 86 % 1016,9 hPa 0,0 l/m 0,2 km/h (0 Bft) S-SO 157 0 min 13,8 C 17,5 C 1,6 km/h (1 Bft)
21.06.2019 07:05 16,4 C 19,8 C 17,5 C 20,9 C 20,9 C 4,5 C 87 % 85 % 1017,1 hPa 0,0 l/m 0,3 km/h (0 Bft) W-NW 292 5 min 14,2 C 20,9 C 0,0 km/h (0 Bft)
21.06.2019 07:10 16,5 C 19,8 C 17,5 C 20,8 C 20,8 C 4,3 C 87 % 85 % 1017,1 hPa 0,0 l/m 0,3 km/h (0 Bft) W-SW 247 5 min 14,3 C 20,8 C 2,1 km/h (1 Bft)
21.06.2019 07:15 16,9 C 19,8 C 17,5 C 19,9 C 19,9 C 3,0 C 87 % 85 % 1017,1 hPa 0,0 l/m 0,2 km/h (0 Bft) SW 225 0 min 14,7 C 19,9 C 0,0 km/h (0 Bft)
21.06.2019 07:20 16,9 C 19,8 C 17,7 C 20,0 C 20,0 C 3,1 C 86 % 84 % 1017,1 hPa 0,0 l/m 0,2 km/h (0 Bft) SW 225 0 min 14,5 C 20,0 C 0,0 km/h (0 Bft)
21.06.2019 07:25 17,1 C 19,8 C 17,6 C 20,1 C 20,1 C 3,0 C 86 % 84 % 1017,2 hPa 0,0 l/m 0,3 km/h (0 Bft) NW 315 0 min 14,7 C 20,1 C 2,3 km/h (1 Bft)
21.06.2019 07:30 17,3 C 19,8 C 17,6 C 19,6 C 19,6 C 2,3 C 86 % 84 % 1017,2 hPa 0,0 l/m 0,5 km/h (0 Bft) S-SO 157 0 min 14,9 C 19,6 C 0,0 km/h (0 Bft)
21.06.2019 07:35 17,2 C 19,8 C 17,6 C 19,1 C 19,1 C 1,9 C 86 % 84 % 1017,2 hPa 0,0 l/m 0,5 km/h (0 Bft) SO 135 0 min 14,8 C 19,1 C 2,4 km/h (1 Bft)
21.06.2019 07:40 17,3 C 19,8 C 17,5 C 18,8 C 18,8 C 1,5 C 85 % 84 % 1017,2 hPa 0,0 l/m 0,3 km/h (0 Bft) S 180 0 min 14,8 C 18,8 C 0,0 km/h (0 Bft)
21.06.2019 07:45 17,3 C 19,8 C 17,6 C 18,7 C 18,7 C 1,4 C 85 % 84 % 1017,9 hPa 0,0 l/m 0,5 km/h (0 Bft) S 180 0 min 14,8 C 18,7 C 3,9 km/h (1 Bft)
21.06.2019 07:50 17,5 C 19,8 C 17,6 C 18,8 C 18,8 C 1,3 C 85 % 84 % 1017,9 hPa 0,0 l/m 0,3 km/h (0 Bft) W-SW 247 0 min 14,9 C 18,8 C 0,0 km/h (0 Bft)
21.06.2019 07:55 17,6 C 19,8 C 17,8 C 19,1 C 19,1 C 1,5 C 85 % 84 % 1017,9 hPa 0,0 l/m 0,2 km/h (0 Bft) S 180 0 min 15,0 C 19,1 C 0,0 km/h (0 Bft)
21.06.2019 08:00 17,6 C 19,8 C 17,9 C 19,3 C 19,3 C 1,7 C 85 % 83 % 1017,9 hPa 0,0 l/m 0,3 km/h (0 Bft) S 180 0 min 15,0 C 19,3 C 0,0 km/h (0 Bft)
21.06.2019 08:05 17,9 C 19,8 C 18,1 C 19,9 C 19,9 C 2,0 C 85 % 83 % 1017,8 hPa 0,0 l/m 0,3 km/h (0 Bft) SW 225 0 min 15,3 C 19,9 C 1,6 km/h (1 Bft)
21.06.2019 08:11 17,9 C 19,7 C 18,4 C 20,2 C 20,2 C 2,3 C 85 % 83 % 1017,8 hPa 0,0 l/m 0,6 km/h (0 Bft) N 0 0 min 15,3 C 20,2 C 0,0 km/h (0 Bft)
21.06.2019 08:26 18,4 C 19,7 C 18,9 C 21,7 C 21,7 C 3,3 C 84 % 81 % 1017,7 hPa 0,0 l/m 0,5 km/h (0 Bft) W 270 15 min 15,6 C 21,7 C 4,2 km/h (1 Bft)
21.06.2019 08:35 18,8 C 19,7 C 19,1 C 22,1 C 22,1 C 3,3 C 83 % 81 % 1017,7 hPa 0,0 l/m 0,5 km/h (0 Bft) W-NW 292 9 min 15,8 C 22,1 C 2,3 km/h (1 Bft)
21.06.2019 08:40 19,1 C 19,7 C 19,3 C 23,4 C 23,4 C 4,3 C 83 % 81 % 1017,7 hPa 0,0 l/m 0,2 km/h (0 Bft) O-NO 67 5 min 16,1 C 23,4 C 0,0 km/h (0 Bft)
21.06.2019 08:45 19,2 C 19,7 C 19,5 C 24,8 C 24,8 C 5,6 C 82 % 80 % 1017,8 hPa 0,0 l/m 0,5 km/h (0 Bft) S 180 5 min 16,0 C 24,8 C 0,0 km/h (0 Bft)
21.06.2019 08:50 19,6 C 19,6 C 19,5 C 26,4 C 26,4 C 6,8 C 82 % 79 % 1017,8 hPa 0,0 l/m 0,5 km/h (0 Bft) W-SW 247 5 min 16,4 C 26,4 C 1,8 km/h (1 Bft)
21.06.2019 08:55 20,1 C 19,6 C 19,6 C 26,2 C 26,2 C 6,1 C 79 % 79 % 1017,8 hPa 0,0 l/m 1,0 km/h (0 Bft) S-SW 202 5 min 16,3 C 26,2 C 5,1 km/h (1 Bft)
21.06.2019 09:00 20,3 C 19,6 C 19,8 C 26,0 C 26,0 C 5,7 C 79 % 79 % 1017,8 hPa 0,0 l/m 0,8 km/h (0 Bft) W 270 5 min 16,5 C 26,0 C 0,0 km/h (0 Bft)
21.06.2019 09:05 20,5 C 19,6 C 19,9 C 25,3 C 25,3 C 4,8 C 77 % 78 % 1018,0 hPa 0,0 l/m 0,3 km/h (0 Bft) W-SW 247 5 min 16,3 C 25,3 C 3,1 km/h (1 Bft)
21.06.2019 09:10 20,4 C 19,5 C 20,0 C 24,7 C 24,7 C 4,3 C 76 % 77 % 1018,0 hPa 0,0 l/m 0,6 km/h (0 Bft) SO 135 5 min 16,0 C 24,7 C 3,4 km/h (1 Bft)
21.06.2019 09:15 20,3 C 19,5 C 20,1 C 24,5 C 24,5 C 4,2 C 76 % 77 % 1018,0 hPa 0,0 l/m 1,3 km/h (1 Bft) NW 315 5 min 15,9 C 24,5 C 3,1 km/h (1 Bft)
21.06.2019 09:20 20,3 C 19,5 C 20,2 C 24,8 C 24,8 C 4,5 C 76 % 77 % 1018,0 hPa 0,0 l/m 1,1 km/h (1 Bft) S 180 5 min 15,9 C 24,8 C 0,0 km/h (0 Bft)
21.06.2019 09:25 20,4 C 19,5 C 20,2 C 26,5 C 26,5 C 6,1 C 75 % 75 % 1018,3 hPa 0,0 l/m 1,0 km/h (0 Bft) S 180 5 min 15,8 C 26,5 C 5,8 km/h (2 Bft)
21.06.2019 09:30 20,3 C 19,5 C 20,1 C 26,0 C 26,0 C 5,7 C 74 % 76 % 1018,3 hPa 0,0 l/m 1,0 km/h (0 Bft) NW 315 5 min 15,5 C 26,0 C 1,6 km/h (1 Bft)
21.06.2019 09:35 20,4 C 19,5 C 20,3 C 26,0 C 26,0 C 5,6 C 74 % 75 % 1018,3 hPa 0,0 l/m 1,0 km/h (0 Bft) W 270 5 min 15,6 C 26,0 C 1,9 km/h (1 Bft)
21.06.2019 09:40 20,5 C 19,5 C 20,4 C 25,6 C 25,6 C 5,1 C 74 % 74 % 1018,3 hPa 0,0 l/m 0,8 km/h (0 Bft) SW 225 5 min 15,7 C 25,6 C 0,0 km/h (0 Bft)
21.06.2019 09:45 20,5 C 19,5 C 20,3 C 24,9 C 24,9 C 4,4 C 73 % 74 % 1018,4 hPa 0,0 l/m 0,5 km/h (0 Bft) S-SW 202 5 min 15,5 C 24,9 C 0,0 km/h (0 Bft)
21.06.2019 09:50 20,5 C 19,5 C 20,3 C 24,5 C 24,5 C 4,0 C 73 % 74 % 1018,4 hPa 0,0 l/m 0,6 km/h (0 Bft) SO 135 5 min 15,5 C 24,5 C 0,0 km/h (0 Bft)
21.06.2019 09:55 20,5 C 19,5 C 20,3 C 24,2 C 24,2 C 3,7 C 73 % 73 % 1018,4 hPa 0,0 l/m 1,1 km/h (1 Bft) SW 225 5 min 15,5 C 24,2 C 4,8 km/h (1 Bft)
21.06.2019 10:00 20,5 C 19,5 C 20,2 C 23,9 C 23,9 C 3,4 C 73 % 74 % 1018,4 hPa 0,0 l/m 1,9 km/h (1 Bft) W 270 5 min 15,5 C 23,9 C 5,3 km/h (1 Bft)
21.06.2019 10:05 20,4 C 19,5 C 20,5 C 24,6 C 24,6 C 4,2 C 74 % 74 % 1018,2 hPa 0,0 l/m 2,1 km/h (1 Bft) W-SW 247 5 min 15,6 C 24,6 C 0,0 km/h (0 Bft)
21.06.2019 10:11 20,6 C 19,5 C 20,8 C 26,0 C 26,0 C 5,4 C 74 % 74 % 1018,2 hPa 0,0 l/m 1,4 km/h (1 Bft) N 0 6 min 15,8 C 26,0 C 2,6 km/h (1 Bft)
21.06.2019 10:26 21,0 C 19,5 C 20,6 C 26,7 C 26,7 C 5,7 C 72 % 72 % 1018,1 hPa 0,0 l/m 0,8 km/h (0 Bft) S 180 15 min 15,8 C 26,7 C 0,0 km/h (0 Bft)
21.06.2019 10:35 21,3 C 19,5 C 20,8 C 27,4 C 27,4 C 6,1 C 72 % 73 % 1018,1 hPa 0,0 l/m 0,2 km/h (0 Bft) S-SW 202 9 min 16,0 C 27,4 C 0,0 km/h (0 Bft)
21.06.2019 10:40 21,3 C 19,5 C 20,9 C 27,2 C 27,2 C 5,9 C 72 % 73 % 1018,1 hPa 0,0 l/m 0,6 km/h (0 Bft) SW 225 5 min 16,0 C 27,2 C 1,8 km/h (1 Bft)
21.06.2019 10:45 21,3 C 19,5 C 20,7 C 25,8 C 25,8 C 4,5 C 70 % 72 % 1018,4 hPa 0,0 l/m 1,1 km/h (1 Bft) SW 225 5 min 15,6 C 25,8 C 0,0 km/h (0 Bft)
21.06.2019 10:50 21,3 C 19,5 C 20,8 C 26,7 C 26,7 C 5,4 C 70 % 72 % 1018,4 hPa 0,0 l/m 0,8 km/h (0 Bft) S 180 5 min 15,6 C 26,7 C 0,0 km/h (0 Bft)
21.06.2019 10:55 21,6 C 19,5 C 20,9 C 29,5 C 29,5 C 7,9 C 70 % 71 % 1018,4 hPa 0,0 l/m 0,6 km/h (0 Bft) N-NW 337 5 min 15,9 C 29,5 C 5,3 km/h (1 Bft)
21.06.2019 11:00 21,7 C 19,5 C 21,0 C 29,9 C 29,9 C 8,2 C 68 % 70 % 1018,4 hPa 0,0 l/m 1,3 km/h (1 Bft) SW 225 5 min 15,5 C 29,9 C 1,6 km/h (1 Bft)
21.06.2019 11:05 22,0 C 19,5 C 21,4 C 31,1 C 31,1 C 9,1 C 69 % 71 % 1018,4 hPa 0,0 l/m 1,8 km/h (1 Bft) S-SO 157 5 min 16,0 C 31,1 C 1,9 km/h (1 Bft)
21.06.2019 11:10 22,1 C 19,5 C 21,4 C 29,6 C 29,6 C 7,5 C 69 % 71 % 1018,4 hPa 0,0 l/m 1,1 km/h (1 Bft) S 180 5 min 16,1 C 29,6 C 1,8 km/h (1 Bft)
21.06.2019 11:15 21,9 C 19,5 C 21,4 C 27,7 C 27,7 C 5,8 C 68 % 70 % 1018,4 hPa 0,0 l/m 1,1 km/h (1 Bft) S-SW 202 5 min 15,7 C 27,7 C 2,6 km/h (1 Bft)
21.06.2019 11:20 21,8 C 19,5 C 21,4 C 27,2 C 27,2 C 5,4 C 68 % 70 % 1018,4 hPa 0,0 l/m 1,3 km/h (1 Bft) S 180 5 min 15,6 C 27,2 C 2,9 km/h (1 Bft)
21.06.2019 11:25 21,9 C 19,5 C 21,2 C 26,8 C 26,8 C 4,9 C 68 % 70 % 1018,6 hPa 0,0 l/m 1,6 km/h (1 Bft) W-SW 247 5 min 15,7 C 26,8 C 7,6 km/h (2 Bft)
21.06.2019 11:30 21,7 C 19,5 C 21,2 C 26,3 C 26,3 C 4,6 C 68 % 70 % 1018,6 hPa 0,0 l/m 1,6 km/h (1 Bft) S 180 5 min 15,5 C 26,3 C 0,0 km/h (0 Bft)
21.06.2019 11:35 21,7 C 19,5 C 21,3 C 26,6 C 26,6 C 4,9 C 69 % 71 % 1018,6 hPa 0,0 l/m 1,4 km/h (1 Bft) S-SW 202 5 min 15,8 C 26,6 C 1,8 km/h (1 Bft)
21.06.2019 11:40 21,7 C 19,5 C 21,5 C 26,3 C 26,3 C 4,6 C 68 % 70 % 1018,6 hPa 0,0 l/m 1,3 km/h (1 Bft) S-SO 157 5 min 15,5 C 26,3 C 0,0 km/h (0 Bft)
21.06.2019 11:45 21,9 C 19,5 C 21,7 C 27,6 C 27,6 C 5,7 C 69 % 70 % 1018,8 hPa 0,0 l/m 1,0 km/h (0 Bft) S-SO 157 5 min 15,9 C 27,6 C 0,0 km/h (0 Bft)
21.06.2019 11:50 22,0 C 19,5 C 21,9 C 28,4 C 28,4 C 6,4 C 69 % 69 % 1018,8 hPa 0,0 l/m 0,8 km/h (0 Bft) SW 225 5 min 16,0 C 28,4 C 2,6 km/h (1 Bft)
21.06.2019 11:55 22,2 C 19,4 C 22,1 C 28,2 C 28,2 C 6,0 C 68 % 69 % 1018,8 hPa 0,0 l/m 0,6 km/h (0 Bft) SW 225 5 min 16,0 C 28,2 C 0,0 km/h (0 Bft)
21.06.2019 12:00 22,5 C 19,4 C 22,1 C 29,3 C 29,3 C 6,8 C 68 % 69 % 1018,8 hPa 0,0 l/m 0,5 km/h (0 Bft) W-SW 247 5 min 16,3 C 29,3 C 1,6 km/h (1 Bft)
21.06.2019 12:05 22,4 C 19,4 C 22,1 C 29,8 C 29,8 C 7,4 C 67 % 69 % 1018,7 hPa 0,0 l/m 1,0 km/h (0 Bft) SW 225 5 min 16,0 C 29,8 C 2,6 km/h (1 Bft)
21.06.2019 12:11 22,5 C 19,4 C 22,2 C 30,0 C 30,0 C 7,5 C 67 % 68 % 1018,7 hPa 0,0 l/m 1,1 km/h (1 Bft) N 0 6 min 16,1 C 30,0 C 0,0 km/h (0 Bft)
21.06.2019 12:24 23,3 C 19,5 C 22,9 C 30,3 C 30,3 C 7,0 C 64 % 65 % 1018,4 hPa 0,0 l/m 1,8 km/h (1 Bft) W-SW 247 13 min 16,1 C 30,3 C 1,9 km/h (1 Bft)
21.06.2019 12:25 23,3 C 19,5 C 22,9 C 30,3 C 30,3 C 7,0 C 64 % 65 % 1018,4 hPa 0,0 l/m 1,8 km/h (1 Bft) W-SW 247 1 min 16,1 C 30,3 C 1,9 km/h (1 Bft)
21.06.2019 12:35 23,5 C 19,5 C 23,1 C 29,7 C 29,7 C 6,2 C 64 % 64 % 1018,4 hPa 0,0 l/m 0,5 km/h (0 Bft) NO 45 10 min 16,3 C 29,7 C 1,9 km/h (1 Bft)
21.06.2019 12:40 23,8 C 19,5 C 23,2 C 30,3 C 30,3 C 6,5 C 63 % 62 % 1018,4 hPa 0,0 l/m 0,6 km/h (0 Bft) NW 315 5 min 16,3 C 30,3 C 3,1 km/h (1 Bft)
21.06.2019 12:45 23,9 C 19,5 C 23,1 C 30,0 C 30,0 C 6,1 C 61 % 61 % 1018,6 hPa 0,0 l/m 2,7 km/h (1 Bft) SW 225 5 min 15,9 C 30,0 C 3,4 km/h (1 Bft)
21.06.2019 12:50 23,8 C 19,5 C 23,2 C 29,7 C 29,7 C 5,9 C 61 % 62 % 1018,6 hPa 0,0 l/m 3,2 km/h (1 Bft) W-SW 247 5 min 15,8 C 29,7 C 3,4 km/h (1 Bft)
21.06.2019 12:55 23,8 C 19,5 C 23,5 C 29,6 C 29,6 C 5,8 C 61 % 63 % 1018,6 hPa 0,0 l/m 1,9 km/h (1 Bft) S 180 5 min 15,8 C 29,6 C 1,8 km/h (1 Bft)
21.06.2019 12:57 24,0 C 19,5 C 24,1 C 30,5 C 30,5 C 6,5 C 60 % 62 % 1018,6 hPa 0,0 l/m 2,3 km/h (1 Bft) N-NW 337 2 min 15,7 C 30,5 C 2,1 km/h (1 Bft)
21.06.2019 13:02 24,4 C 19,5 C 24,4 C 31,5 C 31,5 C 7,1 C 60 % 60 % 1018,5 hPa 0,0 l/m 2,1 km/h (1 Bft) S 180 5 min 16,1 C 31,5 C 1,6 km/h (1 Bft)
21.06.2019 13:07 24,4 C 19,5 C 23,9 C 30,7 C 30,7 C 6,3 C 59 % 60 % 1018,5 hPa 0,0 l/m 1,6 km/h (1 Bft) W-SW 247 5 min 15,9 C 30,7 C 2,4 km/h (1 Bft)
21.06.2019 13:12 23,7 C 19,5 C 23,4 C 28,6 C 28,6 C 4,9 C 60 % 60 % 1018,5 hPa 0,0 l/m 1,8 km/h (1 Bft) S 180 5 min 15,5 C 28,6 C 3,7 km/h (1 Bft)
21.06.2019 13:17 23,5 C 19,5 C 23,2 C 27,8 C 27,8 C 4,3 C 61 % 61 % 1018,5 hPa 0,0 l/m 2,1 km/h (1 Bft) S-SO 157 5 min 15,5 C 27,8 C 3,5 km/h (1 Bft)
21.06.2019 13:22 23,6 C 19,5 C 23,4 C 27,6 C 27,6 C 4,0 C 62 % 62 % 1018,7 hPa 0,0 l/m 1,8 km/h (1 Bft) SW 225 5 min 15,9 C 27,6 C 3,5 km/h (1 Bft)
21.06.2019 13:27 23,6 C 19,5 C 23,6 C 27,7 C 27,7 C 4,1 C 61 % 62 % 1018,7 hPa 0,0 l/m 1,6 km/h (1 Bft) W-SW 247 5 min 15,6 C 27,7 C 2,1 km/h (1 Bft)
21.06.2019 13:32 23,9 C 19,5 C 23,6 C 28,2 C 28,2 C 4,3 C 60 % 58 % 1018,7 hPa 0,0 l/m 1,4 km/h (1 Bft) NW 315 5 min 15,7 C 28,2 C 2,9 km/h (1 Bft)
21.06.2019 13:37 23,9 C 19,5 C 23,6 C 28,7 C 28,7 C 4,8 C 60 % 60 % 1018,7 hPa 0,0 l/m 1,3 km/h (1 Bft) S-SO 157 5 min 15,7 C 28,7 C 1,8 km/h (1 Bft)
21.06.2019 13:41 23,9 C 19,5 C 23,6 C 28,7 C 28,7 C 4,8 C 60 % 60 % 1018,7 hPa 0,0 l/m 1,3 km/h (1 Bft) S-SO 157 4 min 15,7 C 28,7 C 1,8 km/h (1 Bft)
21.06.2019 13:45 24,7 C 19,5 C 24,1 C 31,1 C 31,1 C 6,4 C 60 % 60 % 1018,4 hPa 0,0 l/m 1,3 km/h (1 Bft) W 270 4 min 16,4 C 31,1 C 2,7 km/h (1 Bft)
21.06.2019 13:50 25,1 C 19,6 C 24,0 C 31,9 C 31,9 C 6,8 C 59 % 57 % 1018,4 hPa 0,0 l/m 1,6 km/h (1 Bft) NO 45 5 min 16,5 C 31,9 C 3,4 km/h (1 Bft)
21.06.2019 13:55 24,9 C 19,6 C 23,7 C 30,7 C 30,7 C 5,8 C 58 % 60 % 1018,4 hPa 0,0 l/m 2,3 km/h (1 Bft) S 180 5 min 16,1 C 30,7 C 1,6 km/h (1 Bft)
21.06.2019 14:00 24,7 C 19,6 C 23,7 C 29,4 C 29,4 C 4,7 C 58 % 60 % 1018,4 hPa 0,0 l/m 1,9 km/h (1 Bft) N-NW 337 5 min 15,9 C 29,4 C 1,8 km/h (1 Bft)
21.06.2019 14:05 24,4 C 19,6 C 23,9 C 29,1 C 29,1 C 4,7 C 59 % 60 % 1018,3 hPa 0,0 l/m 1,8 km/h (1 Bft) S 180 5 min 15,9 C 29,1 C 2,1 km/h (1 Bft)
21.06.2019 14:11 24,9 C 19,6 C 24,5 C 30,5 C 30,5 C 5,6 C 59 % 59 % 1018,3 hPa 0,0 l/m 1,6 km/h (1 Bft) N 0 6 min 16,3 C 30,5 C 5,6 km/h (1 Bft)
21.06.2019 14:26 24,6 C 19,6 C 23,6 C 28,8 C 28,8 C 4,2 C 57 % 58 % 1018,2 hPa 0,0 l/m 1,9 km/h (1 Bft) S-SO 157 15 min 15,5 C 28,8 C 4,7 km/h (1 Bft)
21.06.2019 14:27 24,6 C 19,6 C 23,6 C 28,8 C 28,8 C 4,2 C 57 % 58 % 1018,2 hPa 0,0 l/m 1,9 km/h (1 Bft) S-SO 157 1 min 15,5 C 28,8 C 4,7 km/h (1 Bft)
21.06.2019 14:35 24,1 C 19,6 C 23,2 C 27,0 C 27,0 C 2,9 C 58 % 61 % 1018,2 hPa 0,0 l/m 2,3 km/h (1 Bft) SW 225 0 min 15,3 C 27,0 C 2,1 km/h (1 Bft)
21.06.2019 14:40 24,1 C 19,6 C 23,1 C 26,5 C 26,5 C 2,4 C 58 % 60 % 1018,2 hPa 0,0 l/m 1,4 km/h (1 Bft) SW 225 0 min 15,3 C 26,5 C 0,0 km/h (0 Bft)
21.06.2019 14:45 23,8 C 19,6 C 23,0 C 25,9 C 25,9 C 2,1 C 59 % 61 % 1018,6 hPa 0,0 l/m 0,8 km/h (0 Bft) SW 225 0 min 15,3 C 25,9 C 1,6 km/h (1 Bft)
21.06.2019 14:50 23,6 C 19,6 C 22,9 C 25,5 C 25,5 C 1,9 C 59 % 61 % 1018,6 hPa 0,0 l/m 0,5 km/h (0 Bft) NO 45 0 min 15,1 C 25,5 C 1,8 km/h (1 Bft)
21.06.2019 14:55 23,5 C 19,6 C 22,6 C 25,0 C 25,0 C 1,5 C 60 % 63 % 1018,6 hPa 0,0 l/m 0,5 km/h (0 Bft) S-SW 202 0 min 15,3 C 25,0 C 0,0 km/h (0 Bft)
21.06.2019 15:00 23,3 C 19,6 C 22,5 C 24,6 C 24,6 C 1,3 C 60 % 62 % 1018,6 hPa 0,0 l/m 1,0 km/h (0 Bft) S-SO 157 0 min 15,1 C 24,6 C 1,9 km/h (1 Bft)
21.06.2019 15:05 23,1 C 19,6 C 22,4 C 24,1 C 24,1 C 1,0 C 60 % 63 % 1018,3 hPa 0,0 l/m 1,4 km/h (1 Bft) O-SO 112 0 min 14,9 C 24,1 C 2,3 km/h (1 Bft)
21.06.2019 15:10 22,8 C 19,6 C 22,4 C 23,7 C 23,7 C 0,9 C 61 % 63 % 1018,3 hPa 0,0 l/m 1,4 km/h (1 Bft) W-SW 247 0 min 14,9 C 23,7 C 3,5 km/h (1 Bft)
21.06.2019 15:15 22,6 C 19,6 C 22,2 C 23,6 C 23,6 C 1,0 C 62 % 63 % 1018,3 hPa 0,0 l/m 1,4 km/h (1 Bft) W-SW 247 0 min 14,9 C 23,6 C 1,9 km/h (1 Bft)
21.06.2019 15:20 22,4 C 19,6 C 22,2 C 23,6 C 23,6 C 1,2 C 62 % 63 % 1018,3 hPa 0,0 l/m 1,3 km/h (1 Bft) S 180 0 min 14,8 C 23,6 C 3,1 km/h (1 Bft)
21.06.2019 15:25 22,4 C 19,6 C 22,3 C 23,8 C 23,8 C 1,4 C 62 % 63 % 1018,4 hPa 0,0 l/m 1,3 km/h (1 Bft) W-SW 247 0 min 14,8 C 23,8 C 0,0 km/h (0 Bft)
21.06.2019 15:30 22,4 C 19,6 C 22,3 C 24,1 C 24,1 C 1,7 C 63 % 63 % 1018,4 hPa 0,0 l/m 0,8 km/h (0 Bft) S-SO 157 0 min 15,0 C 24,1 C 0,0 km/h (0 Bft)
21.06.2019 15:35 22,4 C 19,6 C 22,3 C 24,6 C 24,6 C 2,2 C 63 % 63 % 1018,4 hPa 0,0 l/m 0,6 km/h (0 Bft) W-NW 292 0 min 15,0 C 24,6 C 2,4 km/h (1 Bft)
21.06.2019 15:40 22,7 C 19,6 C 22,4 C 24,7 C 24,7 C 2,0 C 63 % 64 % 1018,4 hPa 0,0 l/m 0,8 km/h (0 Bft) S 180 0 min 15,3 C 24,7 C 1,9 km/h (1 Bft)
21.06.2019 15:45 22,6 C 19,6 C 22,5 C 25,0 C 25,0 C 2,4 C 62 % 63 % 1018,3 hPa 0,0 l/m 1,1 km/h (1 Bft) W 270 0 min 14,9 C 25,0 C 1,9 km/h (1 Bft)
21.06.2019 15:50 22,7 C 19,6 C 22,6 C 25,3 C 25,3 C 2,6 C 62 % 62 % 1018,3 hPa 0,0 l/m 1,1 km/h (1 Bft) NW 315 0 min 15,0 C 25,3 C 1,8 km/h (1 Bft)
21.06.2019 15:55 22,9 C 19,6 C 22,5 C 25,6 C 25,6 C 2,7 C 62 % 63 % 1018,3 hPa 0,0 l/m 0,6 km/h (0 Bft) SO 135 0 min 15,2 C 25,6 C 0,0 km/h (0 Bft)
21.06.2019 16:00 23,0 C 19,6 C 22,8 C 26,1 C 26,1 C 3,1 C 62 % 63 % 1018,3 hPa 0,0 l/m 0,5 km/h (0 Bft) S-SO 157 0 min 15,3 C 26,1 C 0,0 km/h (0 Bft)
21.06.2019 16:05 23,1 C 19,7 C 23,1 C 27,0 C 27,0 C 3,9 C 61 % 63 % 1018,4 hPa 0,0 l/m 0,5 km/h (0 Bft) S-SO 157 5 min 15,2 C 27,0 C 0,0 km/h (0 Bft)
21.06.2019 16:11 23,4 C 19,7 C 23,5 C 28,5 C 28,5 C 5,1 C 61 % 62 % 1018,4 hPa 0,0 l/m 0,5 km/h (0 Bft) N 0 6 min 15,4 C 28,5 C 0,0 km/h (0 Bft)
21.06.2019 16:26 23,7 C 19,7 C 23,6 C 29,4 C 29,4 C 5,7 C 58 % 59 % 1018,4 hPa 0,0 l/m 0,3 km/h (0 Bft) S 180 15 min 14,9 C 29,4 C 2,9 km/h (1 Bft)
21.06.2019 16:35 23,9 C 19,7 C 23,9 C 30,4 C 30,4 C 6,5 C 57 % 59 % 1018,4 hPa 0,0 l/m 0,2 km/h (0 Bft) S-SO 157 9 min 14,9 C 30,4 C 0,0 km/h (0 Bft)
21.06.2019 16:40 24,0 C 19,7 C 23,9 C 30,9 C 30,9 C 6,9 C 56 % 55 % 1018,4 hPa 0,0 l/m 0,6 km/h (0 Bft) W 270 5 min 14,7 C 30,9 C 2,9 km/h (1 Bft)
21.06.2019 16:45 24,0 C 19,7 C 24,1 C 31,3 C 31,3 C 7,3 C 56 % 55 % 1018,5 hPa 0,0 l/m 1,3 km/h (1 Bft) O 90 5 min 14,7 C 31,3 C 0,0 km/h (0 Bft)
21.06.2019 16:50 24,0 C 19,7 C 24,6 C 31,6 C 31,6 C 7,6 C 55 % 56 % 1018,5 hPa 0,0 l/m 1,0 km/h (0 Bft) SW 225 5 min 14,4 C 31,6 C 1,6 km/h (1 Bft)
21.06.2019 16:55 24,0 C 19,7 C 24,5 C 31,6 C 31,6 C 7,6 C 55 % 55 % 1018,5 hPa 0,0 l/m 0,5 km/h (0 Bft) SW 225 5 min 14,4 C 31,6 C 0,0 km/h (0 Bft)
21.06.2019 17:00 24,1 C 19,7 C 24,8 C 31,7 C 31,7 C 7,6 C 55 % 54 % 1018,5 hPa 0,0 l/m 0,5 km/h (0 Bft) W-SW 247 5 min 14,5 C 31,7 C 0,0 km/h (0 Bft)
21.06.2019 17:05 24,3 C 19,7 C 24,7 C 32,1 C 32,1 C 7,8 C 53 % 53 % 1018,6 hPa 0,0 l/m 0,8 km/h (0 Bft) SW 225 5 min 14,1 C 32,1 C 0,0 km/h (0 Bft)
21.06.2019 17:10 24,2 C 19,7 C 24,6 C 32,2 C 32,2 C 8,0 C 53 % 52 % 1018,6 hPa 0,0 l/m 1,1 km/h (1 Bft) W-SW 247 5 min 14,0 C 32,2 C 0,0 km/h (0 Bft)
21.06.2019 17:15 24,1 C 19,7 C 24,3 C 31,9 C 31,9 C 7,8 C 52 % 50 % 1018,6 hPa 0,0 l/m 1,1 km/h (1 Bft) O-NO 67 5 min 13,6 C 31,9 C 0,0 km/h (0 Bft)
21.06.2019 17:20 24,0 C 19,7 C 24,1 C 31,4 C 31,4 C 7,4 C 53 % 52 % 1018,6 hPa 0,0 l/m 1,4 km/h (1 Bft) O 90 5 min 13,8 C 31,4 C 0,0 km/h (0 Bft)
21.06.2019 17:25 24,1 C 19,7 C 24,2 C 31,8 C 31,8 C 7,7 C 55 % 54 % 1018,4 hPa 0,0 l/m 1,3 km/h (1 Bft) SW 225 5 min 14,5 C 31,8 C 3,5 km/h (1 Bft)
21.06.2019 17:30 24,3 C 19,7 C 24,5 C 31,9 C 31,9 C 7,6 C 55 % 56 % 1018,4 hPa 0,0 l/m 1,0 km/h (0 Bft) SO 135 5 min 14,7 C 31,9 C 1,8 km/h (1 Bft)
21.06.2019 17:35 24,5 C 19,7 C 24,7 C 32,3 C 32,3 C 7,8 C 55 % 55 % 1018,4 hPa 0,0 l/m 0,8 km/h (0 Bft) S 180 5 min 14,9 C 32,3 C 0,0 km/h (0 Bft)
21.06.2019 17:40 24,7 C 19,8 C 24,7 C 32,5 C 32,5 C 7,8 C 55 % 55 % 1018,4 hPa 0,0 l/m 0,6 km/h (0 Bft) W-SW 247 5 min 15,0 C 32,5 C 0,0 km/h (0 Bft)
21.06.2019 17:45 24,7 C 19,8 C 24,6 C 31,9 C 31,9 C 7,2 C 54 % 55 % 1018,1 hPa 0,0 l/m 1,0 km/h (0 Bft) S 180 5 min 14,8 C 31,9 C 0,0 km/h (0 Bft)
21.06.2019 17:50 24,5 C 19,8 C 24,6 C 31,6 C 31,6 C 7,1 C 54 % 55 % 1018,1 hPa 0,0 l/m 0,8 km/h (0 Bft) S-SW 202 5 min 14,6 C 31,6 C 0,0 km/h (0 Bft)
21.06.2019 17:55 24,4 C 19,8 C 24,7 C 31,7 C 31,7 C 7,3 C 55 % 54 % 1018,1 hPa 0,0 l/m 1,0 km/h (0 Bft) SO 135 5 min 14,8 C 31,7 C 9,7 km/h (2 Bft)
21.06.2019 18:00 24,7 C 19,8 C 24,7 C 31,8 C 31,8 C 7,1 C 55 % 55 % 1018,1 hPa 0,0 l/m 1,3 km/h (1 Bft) W 270 5 min 15,0 C 31,8 C 3,1 km/h (1 Bft)
21.06.2019 18:05 24,8 C 19,8 C 24,7 C 32,1 C 32,1 C 7,3 C 55 % 53 % 1018,2 hPa 0,0 l/m 1,0 km/h (0 Bft) N-NO 22 5 min 15,1 C 32,1 C 3,1 km/h (1 Bft)
21.06.2019 18:11 24,8 C 19,8 C 24,5 C 32,1 C 32,1 C 7,3 C 54 % 52 % 1018,2 hPa 0,0 l/m 1,3 km/h (1 Bft) N 0 6 min 14,8 C 32,1 C 0,0 km/h (0 Bft)
21.06.2019 18:26 25,1 C 19,7 C 24,6 C 32,4 C 32,4 C 7,3 C 53 % 53 % 1018,4 hPa 0,0 l/m 1,1 km/h (1 Bft) W-NW 292 15 min 14,8 C 32,4 C 2,1 km/h (1 Bft)
21.06.2019 18:35 25,1 C 19,8 C 24,5 C 31,7 C 31,7 C 6,6 C 53 % 53 % 1018,4 hPa 0,0 l/m 1,6 km/h (1 Bft) NW 315 9 min 14,8 C 31,7 C 2,3 km/h (1 Bft)
21.06.2019 18:40 25,0 C 19,8 C 24,4 C 31,3 C 31,3 C 6,3 C 53 % 52 % 1018,4 hPa 0,0 l/m 1,6 km/h (1 Bft) W-SW 247 5 min 14,7 C 31,3 C 3,9 km/h (1 Bft)
21.06.2019 18:45 24,8 C 19,8 C 24,2 C 31,0 C 31,0 C 6,2 C 53 % 54 % 1018,6 hPa 0,0 l/m 1,6 km/h (1 Bft) N 360 5 min 14,6 C 31,0 C 0,0 km/h (0 Bft)
21.06.2019 18:50 24,9 C 19,8 C 24,2 C 30,9 C 30,9 C 6,0 C 54 % 54 % 1018,6 hPa 0,0 l/m 1,6 km/h (1 Bft) W-NW 292 5 min 14,9 C 30,9 C 4,7 km/h (1 Bft)
21.06.2019 18:55 24,9 C 19,9 C 24,1 C 30,7 C 30,7 C 5,8 C 55 % 55 % 1018,6 hPa 0,0 l/m 1,8 km/h (1 Bft) NW 315 5 min 15,2 C 30,7 C 6,4 km/h (2 Bft)
21.06.2019 19:00 24,8 C 19,9 C 24,0 C 30,5 C 30,5 C 5,7 C 55 % 55 % 1018,6 hPa 0,0 l/m 2,3 km/h (1 Bft) W 270 5 min 15,1 C 30,5 C 7,4 km/h (2 Bft)
21.06.2019 19:05 24,7 C 19,9 C 23,9 C 29,9 C 29,9 C 5,2 C 55 % 53 % 1018,6 hPa 0,0 l/m 2,9 km/h (1 Bft) W 270 5 min 15,0 C 29,9 C 2,4 km/h (1 Bft)
21.06.2019 19:10 24,6 C 19,9 C 23,8 C 29,9 C 29,9 C 5,3 C 55 % 55 % 1018,6 hPa 0,0 l/m 2,3 km/h (1 Bft) S-SW 202 5 min 14,9 C 29,9 C 2,1 km/h (1 Bft)
21.06.2019 19:15 24,6 C 19,9 C 23,9 C 30,0 C 30,0 C 5,4 C 55 % 55 % 1018,6 hPa 0,0 l/m 1,6 km/h (1 Bft) W-SW 247 5 min 14,9 C 30,0 C 4,2 km/h (1 Bft)
21.06.2019 19:20 24,5 C 19,9 C 23,7 C 29,6 C 29,6 C 5,1 C 55 % 54 % 1018,6 hPa 0,0 l/m 1,9 km/h (1 Bft) NW 315 5 min 14,9 C 29,6 C 2,1 km/h (1 Bft)
21.06.2019 19:25 24,4 C 19,9 C 23,6 C 29,1 C 29,1 C 4,7 C 55 % 55 % 1018,8 hPa 0,0 l/m 2,3 km/h (1 Bft) N-NO 22 5 min 14,8 C 29,1 C 2,7 km/h (1 Bft)
21.06.2019 19:30 24,3 C 19,9 C 23,5 C 28,7 C 28,7 C 4,4 C 56 % 56 % 1018,8 hPa 0,0 l/m 1,9 km/h (1 Bft) N-NW 337 5 min 14,9 C 28,7 C 2,1 km/h (1 Bft)
21.06.2019 19:35 24,2 C 19,9 C 23,4 C 28,3 C 28,3 C 4,1 C 56 % 56 % 1018,8 hPa 0,0 l/m 1,8 km/h (1 Bft) W-SW 247 5 min 14,9 C 28,3 C 3,9 km/h (1 Bft)
21.06.2019 19:40 24,3 C 19,9 C 23,3 C 28,2 C 28,2 C 3,9 C 56 % 56 % 1018,8 hPa 0,0 l/m 1,4 km/h (1 Bft) W 270 5 min 14,9 C 28,2 C 1,6 km/h (1 Bft)
21.06.2019 19:45 24,0 C 19,9 C 23,2 C 27,8 C 27,8 C 3,8 C 56 % 57 % 1018,8 hPa 0,0 l/m 1,1 km/h (1 Bft) NO 45 5 min 14,7 C 27,8 C 0,0 km/h (0 Bft)
21.06.2019 19:50 24,0 C 19,9 C 23,1 C 27,6 C 27,6 C 3,6 C 56 % 57 % 1018,8 hPa 0,0 l/m 0,6 km/h (0 Bft) NW 315 5 min 14,7 C 27,6 C 1,6 km/h (1 Bft)
21.06.2019 19:55 24,0 C 19,9 C 22,9 C 27,5 C 27,5 C 3,5 C 57 % 58 % 1018,8 hPa 0,0 l/m 0,2 km/h (0 Bft) NO 45 5 min 14,9 C 27,5 C 0,0 km/h (0 Bft)
21.06.2019 20:00 23,8 C 19,9 C 22,7 C 27,1 C 27,1 C 3,3 C 57 % 59 % 1018,8 hPa 0,0 l/m 0,3 km/h (0 Bft) NO 45 5 min 14,8 C 27,1 C 2,1 km/h (1 Bft)
21.06.2019 20:05 23,5 C 19,9 C 22,5 C 25,9 C 25,9 C 2,4 C 58 % 60 % 1018,8 hPa 0,0 l/m 0,5 km/h (0 Bft) N-NO 22 5 min 14,7 C 25,9 C 0,0 km/h (0 Bft)
21.06.2019 20:11 23,5 C 19,9 C 22,4 C 25,6 C 25,6 C 2,1 C 58 % 60 % 1018,8 hPa 0,0 l/m 0,3 km/h (0 Bft) N 0 6 min 14,7 C 25,6 C 0,0 km/h (0 Bft)
21.06.2019 20:26 23,1 C 19,9 C 22,0 C 25,3 C 25,3 C 2,2 C 59 % 63 % 1018,9 hPa 0,0 l/m 0,0 km/h (0 Bft) N-NO 22 15 min 14,6 C 25,3 C 0,0 km/h (0 Bft)
21.06.2019 20:35 22,9 C 19,9 C 21,7 C 24,6 C 24,6 C 1,7 C 60 % 64 % 1018,9 hPa 0,0 l/m 0,0 km/h (0 Bft) O-NO 67 9 min 14,7 C 24,6 C 0,0 km/h (0 Bft)
21.06.2019 20:40 22,7 C 19,9 C 21,5 C 24,2 C 24,2 C 1,5 C 61 % 65 % 1018,9 hPa 0,0 l/m 0,0 km/h (0 Bft) N-NO 22 5 min 14,8 C 24,2 C 0,0 km/h (0 Bft)
21.06.2019 20:45 22,4 C 19,9 C 21,3 C 23,5 C 23,5 C 1,1 C 62 % 66 % 1019,2 hPa 0,0 l/m 0,0 km/h (0 Bft) NO 45 5 min 14,8 C 23,5 C 0,0 km/h (0 Bft)
21.06.2019 20:50 22,3 C 19,9 C 21,2 C 23,0 C 23,0 C 0,7 C 62 % 67 % 1019,2 hPa 0,0 l/m 0,0 km/h (0 Bft) NO 45 5 min 14,7 C 23,0 C 0,0 km/h (0 Bft)
21.06.2019 20:55 22,2 C 19,9 C 21,1 C 22,4 C 22,4 C 0,2 C 62 % 68 % 1019,2 hPa 0,0 l/m 0,0 km/h (0 Bft) NO 45 0 min 14,6 C 22,4 C 0,0 km/h (0 Bft)
21.06.2019 21:00 22,1 C 19,9 C 21,0 C 22,0 C 21,9 C 0,0 C 62 % 68 % 1019,2 hPa 0,0 l/m 0,0 km/h (0 Bft) N-NW 337 0 min 14,5 C 21,9 C 0,0 km/h (0 Bft)
21.06.2019 21:05 21,9 C 19,9 C 20,8 C 21,7 C 21,2 C 0,0 C 63 % 68 % 1019,3 hPa 0,0 l/m 0,0 km/h (0 Bft) NO 45 0 min 14,5 C 21,2 C 0,0 km/h (0 Bft)
21.06.2019 21:10 21,7 C 19,9 C 20,6 C 21,4 C 20,8 C 0,0 C 64 % 69 % 1019,3 hPa 0,0 l/m 0,0 km/h (0 Bft) NO 45 0 min 14,6 C 20,8 C 0,0 km/h (0 Bft)
21.06.2019 21:15 21,4 C 19,9 C 20,3 C 21,0 C 20,3 C 0,0 C 64 % 69 % 1019,3 hPa 0,0 l/m 0,0 km/h (0 Bft) NO 45 0 min 14,3 C 20,3 C 0,0 km/h (0 Bft)
21.06.2019 21:20 21,3 C 20,0 C 20,2 C 20,8 C 19,9 C 0,0 C 64 % 70 % 1019,3 hPa 0,0 l/m 0,0 km/h (0 Bft) O-NO 67 0 min 14,2 C 19,9 C 0,0 km/h (0 Bft)
21.06.2019 21:25 21,0 C 20,0 C 19,9 C 20,5 C 19,4 C 0,0 C 66 % 71 % 1019,4 hPa 0,0 l/m 0,0 km/h (0 Bft) O-NO 67 0 min 14,4 C 19,4 C 0,0 km/h (0 Bft)
21.06.2019 21:30 20,8 C 20,0 C 19,8 C 20,3 C 19,2 C 0,0 C 66 % 72 % 1019,4 hPa 0,0 l/m 0,0 km/h (0 Bft) O-NO 67 0 min 14,2 C 19,2 C 0,0 km/h (0 Bft)
21.06.2019 21:35 20,4 C 20,0 C 19,5 C 19,9 C 18,9 C 0,0 C 68 % 72 % 1019,4 hPa 0,0 l/m 0,0 km/h (0 Bft) NO 45 0 min 14,3 C 18,9 C 0,0 km/h (0 Bft)
21.06.2019 21:40 20,4 C 20,0 C 19,5 C 19,9 C 18,8 C 0,0 C 68 % 72 % 1019,4 hPa 0,0 l/m 0,0 km/h (0 Bft) NO 45 0 min 14,3 C 18,8 C 0,0 km/h (0 Bft)
21.06.2019 21:45 20,2 C 20,0 C 19,4 C 19,7 C 18,6 C 0,0 C 69 % 72 % 1019,9 hPa 0,0 l/m 0,0 km/h (0 Bft) NO 45 0 min 14,3 C 18,6 C 0,0 km/h (0 Bft)
21.06.2019 21:50 20,0 C 20,0 C 19,2 C 19,5 C 18,5 C 0,0 C 70 % 73 % 1019,9 hPa 0,0 l/m 0,0 km/h (0 Bft) NW 315 0 min 14,4 C 18,5 C 0,0 km/h (0 Bft)
21.06.2019 21:55 20,0 C 20,0 C 19,2 C 19,5 C 18,4 C 0,0 C 71 % 75 % 1019,9 hPa 0,0 l/m 0,0 km/h (0 Bft) NW 315 0 min 14,6 C 18,4 C 0,0 km/h (0 Bft)
21.06.2019 22:00 19,9 C 20,0 C 19,2 C 19,4 C 18,3 C 0,0 C 71 % 75 % 1019,9 hPa 0,0 l/m 0,0 km/h (0 Bft) NW 315 0 min 14,5 C 18,3 C 0,0 km/h (0 Bft)
21.06.2019 22:05 19,8 C 20,0 C 19,1 C 19,2 C 18,1 C 0,0 C 72 % 75 % 1020,1 hPa 0,0 l/m 0,0 km/h (0 Bft) NW 315 0 min 14,6 C 18,1 C 0,0 km/h (0 Bft)
21.06.2019 22:11 19,7 C 20,0 C 18,9 C 19,1 C 18,0 C 0,0 C 72 % 76 % 1020,1 hPa 0,0 l/m 0,0 km/h (0 Bft) N 0 0 min 14,5 C 18,0 C 0,0 km/h (0 Bft)
21.06.2019 22:26 19,3 C 20,0 C 18,4 C 18,6 C 17,3 C 0,0 C 73 % 77 % 1020,3 hPa 0,0 l/m 0,0 km/h (0 Bft) NW 315 0 min 14,3 C 17,3 C 0,0 km/h (0 Bft)
21.06.2019 22:35 18,8 C 20,0 C 18,0 C 18,2 C 16,9 C 0,0 C 74 % 78 % 1020,3 hPa 0,0 l/m 0,0 km/h (0 Bft) NW 315 0 min 14,1 C 16,9 C 0,0 km/h (0 Bft)
21.06.2019 22:40 18,7 C 20,0 C 17,9 C 18,0 C 16,7 C 0,0 C 74 % 78 % 1020,3 hPa 0,0 l/m 0,0 km/h (0 Bft) NW 315 0 min 14,0 C 16,7 C 0,0 km/h (0 Bft)
21.06.2019 22:45 18,4 C 20,0 C 17,7 C 17,8 C 16,5 C 0,0 C 74 % 78 % 1020,1 hPa 0,0 l/m 0,0 km/h (0 Bft) NW 315 0 min 13,7 C 16,5 C 0,0 km/h (0 Bft)
21.06.2019 22:50 18,3 C 20,0 C 17,6 C 17,6 C 16,3 C 0,0 C 74 % 79 % 1020,1 hPa 0,0 l/m 0,0 km/h (0 Bft) NW 315 0 min 13,6 C 16,3 C 0,0 km/h (0 Bft)
21.06.2019 22:55 18,1 C 20,0 C 17,5 C 17,4 C 16,1 C 0,0 C 75 % 79 % 1020,1 hPa 0,0 l/m 0,0 km/h (0 Bft) W-NW 292 0 min 13,6 C 16,1 C 0,0 km/h (0 Bft)
21.06.2019 23:00 18,0 C 20,0 C 17,3 C 17,3 C 15,9 C 0,0 C 75 % 79 % 1020,1 hPa 0,0 l/m 0,0 km/h (0 Bft) NW 315 0 min 13,5 C 15,9 C 0,0 km/h (0 Bft)
21.06.2019 23:05 17,9 C 20,0 C 17,2 C 17,2 C 15,8 C 0,0 C 76 % 80 % 1020,4 hPa 0,0 l/m 0,0 km/h (0 Bft) W-NW 292 0 min 13,6 C 15,8 C 0,0 km/h (0 Bft)
21.06.2019 23:10 17,7 C 20,0 C 17,1 C 17,0 C 15,6 C 0,0 C 76 % 80 % 1020,4 hPa 0,0 l/m 0,0 km/h (0 Bft) NW 315 0 min 13,4 C 15,6 C 0,0 km/h (0 Bft)
21.06.2019 23:15 17,7 C 20,1 C 17,0 C 17,0 C 15,5 C 0,0 C 76 % 81 % 1020,4 hPa 0,0 l/m 0,0 km/h (0 Bft) NW 315 0 min 13,4 C 15,5 C 0,0 km/h (0 Bft)
21.06.2019 23:20 17,5 C 20,1 C 16,9 C 16,8 C 15,5 C 0,0 C 77 % 81 % 1020,4 hPa 0,0 l/m 0,0 km/h (0 Bft) NW 315 0 min 13,4 C 15,5 C 0,0 km/h (0 Bft)
21.06.2019 23:25 17,4 C 20,1 C 16,8 C 16,7 C 15,4 C 0,0 C 77 % 82 % 1020,7 hPa 0,0 l/m 0,0 km/h (0 Bft) NW 315 0 min 13,3 C 15,4 C 0,0 km/h (0 Bft)
21.06.2019 23:30 17,3 C 20,1 C 16,7 C 16,6 C 15,3 C 0,0 C 78 % 82 % 1020,7 hPa 0,0 l/m 0,0 km/h (0 Bft) NW 315 0 min 13,4 C 15,3 C 0,0 km/h (0 Bft)
21.06.2019 23:35 17,1 C 20,1 C 16,6 C 16,4 C 15,1 C 0,0 C 78 % 82 % 1020,7 hPa 0,0 l/m 0,0 km/h (0 Bft) NW 315 0 min 13,2 C 15,1 C 0,0 km/h (0 Bft)
21.06.2019 23:40 17,1 C 20,1 C 16,5 C 16,4 C 15,0 C 0,0 C 78 % 82 % 1020,7 hPa 0,0 l/m 0,0 km/h (0 Bft) NW 315 0 min 13,2 C 15,0 C 0,0 km/h (0 Bft)
21.06.2019 23:45 16,8 C 20,1 C 16,3 C 16,2 C 14,9 C 0,0 C 78 % 82 % 1020,9 hPa 0,0 l/m 0,0 km/h (0 Bft) NW 315 0 min 12,9 C 14,9 C 0,0 km/h (0 Bft)
21.06.2019 23:50 16,7 C 20,1 C 16,2 C 16,1 C 14,8 C 0,0 C 78 % 83 % 1020,9 hPa 0,0 l/m 0,0 km/h (0 Bft) NW 315 0 min 12,8 C 14,8 C 0,0 km/h (0 Bft)
21.06.2019 23:55 16,6 C 20,0 C 16,1 C 15,9 C 14,6 C 0,0 C 79 % 83 % 1020,9 hPa 0,0 l/m 0,0 km/h (0 Bft) NW 315 0 min 12,9 C 14,6 C 0,0 km/h (0 Bft)
_ Min-Zeit 05:30 11:55 05:25 05:30 04:50 00:00 17:15 17:15 00:00 - 00:11 - - - 05:30 04:50 00:00
Minimum _ 14,8 C 19,4 C 14,7 C 14,4 C 13,7 C 0,0 C 52 % 50 % 1014,4 hPa - 0,0 km/h (0 Bft) - - - 12,5 C 13,7 C 0,0 km/h (0 Bft)
_ Max-Zeit 13:50 00:00 17:00 17:40 17:40 11:05 05:45 05:55 23:45 00:00 12:50 - - 08:26 09:00 17:40 17:55
Maximum _ 25,1 C 20,8 C 24,8 C 32,5 C 32,5 C 9,1 C 87 % 89 % 1020,9 hPa 0,0 l/m 3,2 km/h
W-SW (1 Bft)
- - 15 min 16,5 C 32,5 C 9,7 km/h
SO (2 Bft)
Durchschnitt _ 20,2 C 19,9 C 19,9 C 22,8 C 22,5 C 2,8 C 71 % 73 % 1017,8 hPa #0,0 l/m 0,6 km/h (0 Bft) W-SW - #11:16 h 14,6 C 22,5 C 1,1 km/h (0 Bft)
2019 www.wetterstation-wechselburg.de